[[{"header":{"parameterUnit":"m.s-1","parameterCategory":1,"la1":30.2991,"la2":30.254,"lo1":-89.0895,"lo2":-89.0444,"dy":0.0017,"dx":0.0017,"nx":28,"ny":28,"refTime":"2024-03-24T21:00:00:Z","depth":0,"parameterNumber":2,"parameterNumberName":"U-component_of_WINDS"},"data":[0,0,0,0,0,0,0,0,0,0,0,0,0,0,0,0,0,0,0,0,0,0,0,0,0,0,0,0,0,0,0,0,0,0,0,0,0,0,0,0,0,0,0,0,0,0,0,0,0,0,0,0,0,0,0,0,0,0,-8.4715,-8.4717,0,-8.4974,-8.4977,-8.4979,-8.5063,-8.5062,-8.506,-8.5059,-8.532,-8.5328,-8.5336,0,0,0,0,0,0,0,0,0,0,0,0,0,-8.4289,-8.4297,-8.4714,-8.4718,-8.4721,-8.4973,-8.4977,-8.498,-8.5063,-8.5062,-8.506,-8.5059,-8.5317,-8.5327,-8.5337,0,0,0,0,0,0,0,0,0,0,0,0,0,-8.4503,-8.4299,-8.4714,-8.4793,-8.4802,-8.4972,-8.4977,-8.4981,-8.5063,-8.5061,-8.506,-8.5058,-8.5314,-8.5326,-8.5338,-8.5447,0,0,-8.5375,-8.538,0,0,0,0,0,0,0,0,-8.4491,-8.4519,-8.4778,-8.4788,-8.4799,-8.4984,-8.4923,-8.5137,-8.5064,-8.4964,-8.5059,-8.5057,-8.5209,-8.523,-8.5282,-8.5459,-8.547,-8.5376,-8.5383,-8.5388,-8.5392,0,0,0,0,0,0,0,-8.4476,-8.4508,-8.4817,-8.4781,-8.4794,-8.4814,-8.4843,-8.4964,-8.5093,-8.4973,-8.4979,-8.5009,-8.5215,-8.527,-8.5289,-8.5474,-8.5375,-8.5386,-8.5393,-8.5398,-8.5756,-8.5758,0,0,0,0,0,0,-8.4448,-8.4495,-8.4809,-8.4825,-8.4638,-8.4823,-8.4855,-8.4926,-8.5092,-8.5116,-8.501,-8.5012,-8.5251,-8.5275,-8.5298,-8.5437,-8.5388,-8.5399,-8.5406,-8.5753,-8.5756,-8.5759,0,0,0,0,0,0,-8.4439,-8.4476,-8.4798,-8.4662,-8.4705,-8.4833,-8.4912,-8.4932,-8.4988,-8.5121,-8.5144,-8.5043,-8.525,-8.5281,-8.541,-8.5447,-8.5405,-8.5416,-8.5751,-8.5754,-8.5757,-8.5715,0,0,0,0,0,0,-8.4426,-8.4472,-8.4514,-8.4662,-8.4712,-8.4905,-8.4914,-8.4939,-8.5009,-8.5014,-8.5158,-8.518,-8.5251,-8.5392,-8.5422,-8.5463,-8.5425,-8.5748,-8.5752,-8.5756,-8.5714,-8.5717,-8.5719,0,0,0,0,0,-8.4411,-8.4491,-8.4516,-8.4553,-8.4768,-8.4907,-8.4936,-8.5017,-8.5012,-8.5056,-8.5142,-8.5175,-8.5439,-8.5404,-8.5439,-8.5484,-8.5746,-8.5751,-8.5756,-8.5712,-8.5716,-8.5719,0,0,0,0,0,0,-8.4341,-8.4511,-8.4541,-8.4672,-8.4775,-8.4921,-8.4979,-8.5018,-8.5124,-8.5123,-8.5219,-8.5251,-8.5372,-8.5442,-8.54,-8.56,-8.5594,-8.5606,-8.5549,-8.5554,-8.5556,-8.5535,-8.5435,0,0,0,0,0,-8.4342,-8.4442,-8.4585,-8.4686,-8.4737,-8.4849,-8.4913,-8.4968,-8.5077,-8.5121,-8.5216,-8.532,-8.5427,-8.5495,-8.56,-8.5726,-8.5758,-8.5775,-8.5777,-8.5779,-8.5787,-8.5859,-8.5868,-8.5775,-8.5775,-8.5775,0,0,-8.4342,-8.4448,-8.4505,-8.4675,-8.4761,-8.4862,-8.4885,-8.499,-8.5066,-8.5136,-8.5263,-8.5338,-8.5461,-8.5588,-8.5649,-8.565,-8.5821,-8.5785,-8.5786,-8.5793,-8.5865,-8.5874,-8.5882,-8.5779,-8.5778,-8.5778,0,0,-8.4394,-8.4485,-8.4579,-8.4667,-8.4798,-8.4873,-8.4895,-8.5038,-8.509,-8.522,-8.5276,-8.5367,-8.5549,-8.5635,-8.5702,-8.5791,-8.5826,-8.5823,-8.5836,-8.5905,-8.5913,-8.5919,-8.595,-8.596,-8.5832,-8.5832,-8.5832,0,-8.4377,-8.4533,-8.4622,-8.4726,-8.4799,-8.4872,-8.4968,-8.5048,-8.5206,-8.5254,-8.5254,-8.5485,-8.5573,-8.5722,-8.5744,-8.5797,-8.5825,-8.5805,-8.5905,-8.5912,-8.592,-8.5951,-8.5962,-8.5831,-8.5831,-8.5831,-8.5831,0,-8.4505,-8.4612,-8.4673,-8.4826,-8.4907,-8.5006,-8.5111,-8.5182,-8.5231,-8.5306,-8.5438,-8.5547,-8.5676,-8.5717,-8.5764,-8.5873,-8.587,-8.5886,-8.5881,-8.5926,-8.5956,-8.5969,-8.5828,-8.5829,-8.5829,-8.583,0,0,-8.4516,-8.4721,-8.4742,-8.4813,-8.4965,-8.5049,-8.5153,-8.5281,-8.534,-8.5448,-8.5536,-8.5691,-8.5708,-8.5784,-8.5843,-8.5905,-8.5968,-8.5914,-8.5918,-8.5918,-8.6094,-8.6079,-8.6091,-8.5994,-8.5997,-8.5999,-8.6083,0,-8.4586,-8.4774,-8.486,-8.5009,-8.5109,-8.5182,-8.5272,-8.5375,-8.5449,-8.5544,-8.5626,-8.5733,-8.5748,-8.5795,-8.5859,-8.5946,-8.6004,-8.5942,-8.6075,-8.6079,-8.6039,-8.6107,-8.6091,-8.6164,-8.6096,-8.6098,-8.6099,0,-8.4692,-8.4802,-8.4962,-8.5105,-8.515,-8.5229,-8.5355,-8.5446,-8.5565,-8.5614,-8.5702,-8.5759,-8.5871,-8.5862,-8.6017,-8.5972,-8.6033,-8.6085,-8.609,-8.6102,-8.6089,-8.6119,-8.619,-8.62,-8.6119,-8.6117,-8.6116,0,-8.4682,-8.4871,-8.4991,-8.505,-8.5219,-8.5274,-8.5347,-8.5464,-8.5537,-8.5647,-8.5695,-8.5817,-8.5882,-8.5975,-8.6064,-8.6049,-8.621,-8.6208,-8.6253,-8.625,-8.628,-8.6276,-8.6359,-8.6324,-8.6323,-8.6323,-8.6323,0,-8.4749,-8.4844,-8.4989,-8.5062,-8.5171,-8.5269,-8.5374,-8.5452,-8.5557,-8.5647,-8.5718,-8.58,-8.5914,-8.6011,-8.6082,-8.6199,-8.6228,-8.6271,-8.6288,-8.6263,-8.6257,-8.6301,-8.6297,-8.6326,-8.6326,-8.6325,-8.6324,0,-8.4754,-8.4856,-8.4991,-8.5142,-8.5183,-8.5256,-8.5385,-8.5459,-8.5538,-8.5651,-8.5683,-8.5807,-8.5926,-8.6025,-8.618,-8.6228,-8.6349,-8.637,-8.6308,-8.6317,-8.6355,-8.6349,-8.6466,-8.6486,-8.6439,-8.6439,-8.644,0,-8.4789,-8.4864,-8.5024,-8.509,-8.5163,-8.5268,-8.5343,-8.5444,-8.552,-8.5663,-8.572,-8.5844,-8.5948,-8.6134,-8.6238,-8.6357,-8.6381,-8.6414,-8.6398,-8.6372,-8.6379,-8.6372,-8.638,-8.6413,-8.6413,-8.6413,-8.6413,0,-8.484,-8.4888,-8.4994,-8.5119,-8.5207,-8.531,-8.5414,-8.5464,-8.5584,-8.5666,-8.5789,-8.587,-8.603,-8.6152,-8.6284,-8.6359,-8.6406,-8.6418,-8.6435,-8.6408,-8.6368,-8.6389,-8.6308,-8.6414,-8.6414,-8.6414,-8.6414,-8.6414,-8.4861,-8.4931,-8.5055,-8.5171,-8.5261,-8.5358,-8.5435,-8.5526,-8.563,-8.5769,-8.5823,-8.5948,-8.6068,-8.625,-8.6326,-8.6426,-8.6431,-8.6455,-8.6461,-8.6464,-8.646,-8.6355,-8.645,-8.645,-8.645,-8.6451,-8.6451,0,-8.4914,-8.4998,-8.5104,-8.5249,-8.5341,-8.5381,-8.55,-8.5573,-8.5683,-8.5792,-8.5894,-8.6036,-8.6156,-8.627,-8.6396,-8.6453,-8.6478,-8.6483,-8.6478,-8.6494,-8.6448,-8.6421,-8.6461,-8.6461,-8.6461,-8.6461,-8.6461,-8.646,-8.4952,-8.5073,-8.5135,-8.5301,-8.5385,-8.551,-8.5574,-8.5664,-8.5751,-8.5906,-8.6007,-8.6082,-8.6193,-8.6328,-8.6439,-8.647,-8.6512,-8.651,-8.6546,-8.65,-8.6498,-8.6495,-8.647,-8.6519,-8.6519,-8.6584,-8.6585,-8.6585]},{"header":{"parameterUnit":"m.s-1","parameterCategory":1,"la1":30.2991,"la2":30.254,"lo1":-89.0895,"lo2":-89.0444,"dy":0.0017,"dx":0.0017,"nx":28,"ny":28,"refTime":"2024-03-24T21:00:00:Z","depth":0,"parameterNumber":3,"parameterNumberName":"V-component_of_WINDS"},"data":[0,0,0,0,0,0,0,0,0,0,0,0,0,0,0,0,0,0,0,0,0,0,0,0,0,0,0,0,0,0,0,0,0,0,0,0,0,0,0,0,0,0,0,0,0,0,0,0,0,0,0,0,0,0,0,0,0,0,5.2596,5.2597,0,5.2654,5.2655,5.2656,5.2657,5.2656,5.2655,5.2655,5.2714,5.2716,5.2718,0,0,0,0,0,0,0,0,0,0,0,0,0,5.2488,5.249,5.2596,5.2597,5.2598,5.2654,5.2655,5.2656,5.2657,5.2656,5.2655,5.2654,5.2713,5.2716,5.2718,0,0,0,0,0,0,0,0,0,0,0,0,0,5.254,5.2491,5.2596,5.2605,5.2606,5.2654,5.2655,5.2656,5.2657,5.2656,5.2655,5.2654,5.2712,5.2715,5.2719,5.2761,0,0,5.2729,5.273,0,0,0,0,0,0,0,0,5.2537,5.2544,5.2603,5.2605,5.2606,5.2647,5.2639,5.2691,5.2657,5.2638,5.2655,5.2653,5.2692,5.2697,5.2711,5.2764,5.2766,5.2729,5.2731,5.2733,5.2734,0,0,0,0,0,0,0,5.2533,5.2541,5.2619,5.2604,5.2606,5.2607,5.2613,5.2649,5.2671,5.264,5.264,5.2647,5.2693,5.2707,5.2712,5.2767,5.2729,5.2732,5.2734,5.2736,5.2862,5.2863,0,0,0,0,0,0,5.2528,5.2538,5.2617,5.2621,5.2568,5.261,5.2617,5.2635,5.267,5.2674,5.2648,5.2647,5.2702,5.2708,5.2714,5.2769,5.2733,5.2736,5.2738,5.2861,5.2862,5.2864,0,0,0,0,0,0,5.2525,5.2535,5.2615,5.258,5.259,5.2613,5.2634,5.2637,5.2651,5.2676,5.268,5.2658,5.2702,5.2709,5.275,5.2771,5.2737,5.274,5.2859,5.2861,5.2863,5.2876,0,0,0,0,0,0,5.2522,5.2534,5.255,5.258,5.2592,5.265,5.2635,5.2639,5.2657,5.2656,5.2687,5.2691,5.2701,5.2745,5.2754,5.2775,5.2743,5.2857,5.286,5.2862,5.2874,5.2878,5.2882,0,0,0,0,0,5.2518,5.255,5.255,5.256,5.2612,5.2651,5.2658,5.2669,5.2659,5.2675,5.2692,5.269,5.2767,5.2749,5.2759,5.2781,5.2856,5.2859,5.2862,5.2872,5.2878,5.2882,0,0,0,0,0,0,5.252,5.2554,5.2555,5.2597,5.2621,5.2651,5.2672,5.2674,5.2701,5.2699,5.2712,5.2719,5.276,5.2774,5.2754,5.2826,5.281,5.2815,5.2815,5.282,5.2824,5.282,5.2746,0,0,0,0,0,5.2526,5.2555,5.2582,5.2617,5.2629,5.2649,5.2666,5.2673,5.2698,5.2708,5.2728,5.2753,5.2783,5.2802,5.2831,5.2876,5.2884,5.2896,5.29,5.2903,5.2908,5.2936,5.2943,5.2874,5.2874,5.2873,0,0,5.2538,5.256,5.2576,5.2618,5.2638,5.2668,5.2657,5.2689,5.2712,5.2713,5.2754,5.2769,5.2798,5.2842,5.2862,5.2855,5.2929,5.2907,5.291,5.2913,5.294,5.2946,5.2952,5.2876,5.2875,5.2875,0,0,5.2575,5.2593,5.2626,5.2646,5.2676,5.2689,5.2697,5.2727,5.2738,5.2779,5.2781,5.2809,5.2859,5.2881,5.2898,5.2947,5.2947,5.2955,5.2977,5.3004,5.3009,5.3014,5.3034,5.304,5.296,5.296,5.296,0,5.2585,5.263,5.2642,5.2675,5.2694,5.2698,5.2732,5.2751,5.2789,5.2802,5.2794,5.286,5.2879,5.293,5.2942,5.2955,5.2966,5.2952,5.3008,5.3013,5.3018,5.3036,5.3043,5.2961,5.2961,5.296,5.296,0,5.2643,5.2675,5.2698,5.2736,5.2757,5.279,5.2808,5.2829,5.2835,5.2849,5.2892,5.2916,5.2951,5.2963,5.2968,5.3016,5.3011,5.3005,5.299,5.3025,5.3043,5.305,5.2962,5.2962,5.2961,5.2961,0,0,5.2682,5.2728,5.2736,5.2755,5.2789,5.2815,5.2849,5.2884,5.2903,5.2929,5.2959,5.3004,5.2999,5.3019,5.3027,5.3051,5.3091,5.3042,5.3043,5.3052,5.3147,5.3153,5.3161,5.3091,5.3092,5.3093,5.3146,0,5.2725,5.2786,5.2799,5.2852,5.2883,5.2888,5.2918,5.2943,5.2958,5.2987,5.3003,5.3036,5.3026,5.3039,5.3062,5.3081,5.311,5.3077,5.3121,5.3122,5.3115,5.317,5.3175,5.3223,5.3153,5.3154,5.3154,0,5.2782,5.2811,5.2868,5.2901,5.2915,5.2942,5.2977,5.3003,5.3033,5.3042,5.3066,5.3072,5.3109,5.3092,5.3145,5.3122,5.3141,5.3153,5.3155,5.3161,5.3141,5.3179,5.3239,5.3247,5.3165,5.3164,5.3164,0,5.2808,5.2861,5.2903,5.2918,5.2957,5.2977,5.2994,5.3023,5.3044,5.3074,5.3089,5.3122,5.3141,5.3168,5.3184,5.3169,5.3236,5.322,5.3247,5.3246,5.3261,5.326,5.3327,5.327,5.327,5.327,5.327,0,5.2855,5.289,5.2916,5.2941,5.2982,5.2996,5.3036,5.3053,5.3079,5.3109,5.3115,5.3143,5.3161,5.3193,5.3205,5.3248,5.3256,5.3266,5.3269,5.3266,5.3266,5.328,5.3278,5.3272,5.3272,5.3271,5.3271,0,5.2891,5.2909,5.2955,5.2989,5.2999,5.3027,5.3057,5.3083,5.3098,5.3137,5.3147,5.3171,5.3209,5.3227,5.3272,5.3281,5.3331,5.3331,5.3321,5.3323,5.335,5.3348,5.3429,5.3442,5.3375,5.3376,5.3376,0,5.292,5.2948,5.2985,5.3006,5.3024,5.3057,5.308,5.3096,5.3119,5.3156,5.3178,5.3216,5.3248,5.3307,5.333,5.3366,5.3368,5.3394,5.3373,5.3371,5.3371,5.337,5.3374,5.3398,5.3398,5.3399,5.3399,0,5.2972,5.298,5.3012,5.3048,5.3075,5.3103,5.3132,5.3149,5.317,5.3196,5.3235,5.3259,5.3307,5.3345,5.3383,5.3402,5.3405,5.3406,5.3414,5.3413,5.3407,5.3413,5.3334,5.3404,5.3404,5.3403,5.3403,5.3403,5.3007,5.3033,5.3064,5.31,5.3124,5.3151,5.3178,5.3198,5.323,5.3271,5.3279,5.3321,5.3352,5.3403,5.3423,5.3457,5.3451,5.3463,5.3466,5.347,5.3472,5.34,5.3464,5.3464,5.3463,5.3463,5.3463,0,5.3061,5.3082,5.3115,5.3155,5.3184,5.3185,5.3217,5.3242,5.3279,5.3307,5.3339,5.3385,5.3422,5.3449,5.3487,5.3509,5.3512,5.3519,5.3519,5.3524,5.3474,5.3464,5.3517,5.3517,5.3517,5.3517,5.3517,5.3517,5.3093,5.3137,5.315,5.3207,5.3227,5.3269,5.3288,5.3314,5.3337,5.3388,5.342,5.3437,5.3466,5.3507,5.3542,5.3549,5.3564,5.3572,5.3579,5.3532,5.3527,5.3521,5.3512,5.3574,5.3574,5.3626,5.3626,5.3627]}]]